Location: Arrakis Observatory
(44.1122°N, 95.7153°W)
Time: 06:59:49
(UTC-05:00)

Amateur Radio Satellites - All Passes

Search period start: 29 August 2014 06:29
Search period end: 30 August 2014 06:29
Location: Arrakis Observatory, 44.1122°N, 95.7153°W

Satellite Date Start Highest point End Downlink Frequencies (MHz)
Time Altitude Azimuth
AO-7 29 Aug 06:39:41 06:47:53 66° 294° (WNW) 06:56:02 29.400 - 29.500 MHz
RS-15 29 Aug 06:42:01 06:47:12 15° 96° (E) 06:52:19 29.354 - 29.394 USB, Beacon 29.352 USB
Uosat F 29 Aug 06:55:47 07:00:00 28° 295° (WNW) 07:04:12 435.120 FM
Saudisat 1A 29 Aug 06:59:05 07:02:14 19° 38° (NE) 07:05:21 436.775 MHz
KITSAT 1 29 Aug 07:07:44 07:13:46 22° 27° (NNE) 07:19:45 435.175 FM
STRAND 1 29 Aug 07:19:16 07:24:23 88° 255° (WSW) 07:29:31 ?
SO-50 29 Aug 07:20:05 07:22:11 13° 330° (NNW) 07:24:18 436.795 FM
JAS-2 29 Aug 07:23:20 07:28:31 64° 102° (ESE) 07:34:01 435.800 - 435.900 CW/SSB, 435.910 FM
Hamsat 29 Aug 07:36:08 07:40:31 76° 285° (WNW) 07:44:49 145.90 MHz
UOSAT-12 29 Aug 07:46:02 07:50:25 41° 313° (NW) 07:54:54 437.025 FM, 437.400 FM
SO-67 29 Aug 08:07:35 08:10:46 33° 97° (E) 08:13:56 435.3500 MHz FM
AO-7 29 Aug 08:34:16 08:39:10 17° 315° (NW) 08:44:04 29.400 - 29.500 MHz
Saudisat 1A 29 Aug 08:37:54 08:42:19 74° 237° (WSW) 08:46:42 436.775 MHz
RS-15 29 Aug 08:46:22 08:57:17 68° 117° (ESE) 09:08:03 29.354 - 29.394 USB, Beacon 29.352 USB
KITSAT 1 29 Aug 09:02:53 09:10:56 63° 52° (NE) 09:18:54 435.175 FM
STRAND 1 29 Aug 09:03:02 09:04:17 11° 273° (W) 09:05:32 ?
JAS-2 29 Aug 09:09:48 09:13:13 18° 299° (WNW) 09:16:44 435.800 - 435.900 CW/SSB, 435.910 FM
UOSAT-12 29 Aug 09:30:48 09:31:52 11° 334° (NNW) 09:32:56 437.025 FM, 437.400 FM
SO-67 29 Aug 09:41:26 09:43:33 16° 294° (WNW) 09:45:40 435.3500 MHz FM
HO-68 29 Aug 10:10:24 10:17:22 51° 101° (E) 10:24:16 435.675 MHz FM
UKube-1 29 Aug 10:50:54 10:55:15 67° 102° (ESE) 10:59:34 145.840 MHz, 145.915 MHz
Oscar 11 29 Aug 10:58:44 11:03:03 54° 100° (E) 11:07:19 145.825 FM, Beacon 2401.500 USB
KITSAT 1 29 Aug 10:58:55 11:05:50 33° 253° (WSW) 11:12:44 435.175 FM
RS-15 29 Aug 11:00:00 11:10:19 44° 323° (NW) 11:20:39 29.354 - 29.394 USB, Beacon 29.352 USB
FUNcube-1 29 Aug 11:19:58 11:24:11 38° 97° (E) 11:28:26 145.950 - 145.970 MHz USB
HO-68 29 Aug 11:58:31 12:04:49 35° 299° (WNW) 12:11:07 435.675 MHz FM
ISS 29 Aug 11:59:08 12:02:22 51° 143° (SE) 12:05:37 145.800 FM
JAS-1B 29 Aug 12:07:17 12:10:07 12° 44° (NE) 12:12:51 435.800 - 435.900 CW/SSB
Oscar 16 29 Aug 12:23:24 12:25:27 12° 56° (NE) 12:27:31 437.025 USB, Beacon 2401.1428
SO-50 29 Aug 12:26:06 12:30:18 30° 44° (NE) 12:34:33 436.795 FM
UKube-1 29 Aug 12:28:45 12:30:55 14° 300° (WNW) 12:33:05 145.840 MHz, 145.915 MHz
Oscar 11 29 Aug 12:36:05 12:38:48 16° 297° (WNW) 12:41:31 145.825 FM, Beacon 2401.500 USB
UOSAT-12 29 Aug 12:56:13 12:57:05 10° 25° (NNE) 12:57:57 437.025 FM, 437.400 FM
FUNcube-1 29 Aug 12:56:47 13:00:23 24° 294° (WNW) 13:04:01 145.950 - 145.970 MHz USB
MaSat-1 29 Aug 13:10:20 13:13:20 16° 101° (E) 13:16:26 437.345 MHz
RS-15 29 Aug 13:17:54 13:26:30 25° 356° (N) 13:35:11 29.354 - 29.394 USB, Beacon 29.352 USB
Oscar 19 29 Aug 13:24:40 13:29:26 39° 68° (ENE) 13:34:14 437.125 CW, 437.150 USB
ISS 29 Aug 13:36:10 13:39:14 33° 341° (NNW) 13:42:18 145.800 FM
JAS-1B 29 Aug 13:49:38 13:58:41 46° 65° (ENE) 14:06:49 435.800 - 435.900 CW/SSB
ITAMSAT 1 29 Aug 13:53:51 13:58:27 34° 66° (ENE) 14:03:04 435.822 SSB
TMSAT-1 29 Aug 13:57:37 14:00:07 14° 57° (ENE) 14:02:37 436.925 FM
Oscar 16 29 Aug 13:58:49 14:03:58 82° 74° (ENE) 14:09:11 437.025 USB, Beacon 2401.1428
AO-7 29 Aug 14:02:04 14:04:59 12° 39° (NE) 14:07:54 29.400 - 29.500 MHz
AO-Echo 29 Aug 14:03:53 14:08:38 43° 70° (ENE) 14:13:16 ?
Uribyol 2 29 Aug 14:03:54 14:08:45 43° 69° (ENE) 14:13:37 436.500 FM
SO-50 29 Aug 14:06:29 14:11:01 43° 242° (WSW) 14:15:36 436.795 FM
AO-27 29 Aug 14:21:54 14:26:59 60° 72° (ENE) 14:32:05 436.795 MHz FM
UOSAT-12 29 Aug 14:34:05 14:38:34 39° 47° (NE) 14:42:58 437.025 FM, 437.400 FM
Gurwin Techsat 1B 29 Aug 14:41:52 14:46:49 42° 68° (ENE) 14:51:48 435.225 FM
MaSat-1 29 Aug 14:44:50 14:49:43 70° 299° (WNW) 14:54:53 437.345 MHz
Oscar 19 29 Aug 15:04:29 15:08:52 28° 265° (W) 15:13:17 437.125 CW, 437.150 USB
ISS 29 Aug 15:13:58 15:16:38 22° 2° (N) 15:19:18 145.800 FM
RS-15 29 Aug 15:33:13 15:43:09 37° 31° (NNE) 15:53:20 29.354 - 29.394 USB, Beacon 29.352 USB
ITAMSAT 1 29 Aug 15:33:18 15:37:55 33° 264° (W) 15:42:34 435.822 SSB
TMSAT-1 29 Aug 15:33:57 15:39:15 87° 75° (ENE) 15:44:35 436.925 FM
JAS-1B 29 Aug 15:39:29 15:49:00 52° 261° (W) 15:57:40 435.800 - 435.900 CW/SSB
Oscar 16 29 Aug 15:41:41 15:43:58 13° 272° (W) 15:46:15 437.025 USB, Beacon 2401.1428
AO-Echo 29 Aug 15:43:32 15:47:33 24° 266° (W) 15:51:30 ?
Uribyol 2 29 Aug 15:44:11 15:48:23 25° 266° (W) 15:52:37 436.500 FM
AO-7 29 Aug 15:47:55 15:55:44 47° 61° (ENE) 16:03:33 29.400 - 29.500 MHz
Oscar 10/S400 29 Aug 15:55:46 16:03:33 13° 143° (SE) 16:10:58 145.825 - 145.975 CW/USB, Beacon 145.810 USB
AO-27 29 Aug 16:03:26 16:06:54 18° 269° (W) 16:10:24 436.795 MHz FM
UOSAT-12 29 Aug 16:14:30 16:18:35 29° 246° (WSW) 16:22:37 437.025 FM, 437.400 FM
Gurwin Techsat 1B 29 Aug 16:22:28 16:26:55 27° 266° (W) 16:31:24 435.225 FM
MaSat-1 29 Aug 16:25:02 16:27:43 14° 319° (NW) 16:30:25 437.345 MHz
Uosat F 29 Aug 16:31:20 16:36:16 62° 72° (ENE) 16:41:13 435.120 FM
PCSat 29 Aug 16:39:00 16:41:50 15° 103° (ESE) 16:44:40 145.825 MHz
ISS 29 Aug 16:50:50 16:54:00 39° 22° (NNE) 16:57:09 145.800 FM
Hamsat 29 Aug 16:58:48 16:59:37 11° 59° (ENE) 17:00:26 145.90 MHz
TMSAT-1 29 Aug 17:17:46 17:19:52 12° 273° (W) 17:21:58 436.925 FM
JAS-2 29 Aug 17:37:30 17:42:52 33° 67° (ENE) 17:47:46 435.800 - 435.900 CW/SSB, 435.910 FM
AO-7 29 Aug 17:40:42 17:48:32 44° 261° (W) 17:56:25 29.400 - 29.500 MHz
RS-15 29 Aug 17:45:50 17:56:57 87° 238° (WSW) 18:08:30 29.354 - 29.394 USB, Beacon 29.352 USB
OPAL 29 Aug 17:46:45 17:51:53 55° 103° (ESE) 17:56:59 ?
Sapphire 29 Aug 17:49:40 17:54:54 54° 115° (ESE) 18:00:11 437.095 MHz 1200 baud AX-25 AFSK
Uosat F 29 Aug 18:12:21 18:15:29 17° 269° (W) 18:18:37 435.120 FM
PCSat 29 Aug 18:19:05 18:24:30 83° 301° (WNW) 18:29:58 145.825 MHz
ISS 29 Aug 18:27:37 18:30:44 37° 220° (SW) 18:33:51 145.800 FM
Hamsat 29 Aug 18:30:33 18:34:52 89° 257° (WSW) 18:39:15 145.90 MHz
SO-67 29 Aug 18:43:04 18:45:13 16° 66° (ENE) 18:47:22 435.3500 MHz FM
JAS-2 29 Aug 19:22:10 19:27:55 38° 262° (W) 19:33:08 435.800 - 435.900 CW/SSB, 435.910 FM
OPAL 29 Aug 19:26:24 19:30:23 23° 300° (WNW) 19:34:22 ?
STRAND 1 29 Aug 19:28:51 19:33:11 28° 95° (E) 19:37:31 ?
Sapphire 29 Aug 19:34:02 19:38:38 28° 315° (NW) 19:43:16 437.095 MHz 1200 baud AX-25 AFSK
RS-15 29 Aug 19:59:48 20:07:47 24° 259° (W) 20:16:01 29.354 - 29.394 USB, Beacon 29.352 USB
PCSat 29 Aug 20:05:08 20:08:46 18° 322° (NW) 20:12:25 145.825 MHz
SO-67 29 Aug 20:14:50 20:18:00 33° 263° (W) 20:21:12 435.3500 MHz FM
HO-68 29 Aug 20:40:29 20:47:09 45° 64° (ENE) 20:53:51 435.675 MHz FM
STRAND 1 29 Aug 21:07:45 21:12:28 39° 292° (WNW) 21:17:10 ?
UKube-1 29 Aug 21:47:41 21:52:01 71° 74° (ENE) 21:56:21 145.840 MHz, 145.915 MHz
Oscar 11 29 Aug 21:55:05 21:59:17 51° 72° (ENE) 22:03:31 145.825 FM, Beacon 2401.500 USB
FUNcube-1 29 Aug 22:18:12 22:21:59 34° 69° (ENE) 22:25:51 145.950 - 145.970 MHz USB
HO-68 29 Aug 22:28:23 22:34:56 38° 263° (W) 22:41:31 435.675 MHz FM
Saudisat 1A 29 Aug 22:46:48 22:50:00 20° 112° (ESE) 22:53:13 436.775 MHz
MaSat-1 29 Aug 23:01:15 23:05:44 41° 55° (NE) 23:09:41 437.345 MHz
UKube-1 29 Aug 23:27:20 23:28:42 11° 271° (W) 23:30:05 145.840 MHz, 145.915 MHz
Oscar 11 29 Aug 23:33:08 23:35:46 16° 269° (W) 23:38:26 145.825 FM, Beacon 2401.500 USB
KITSAT 1 29 Aug 23:33:28 23:40:29 34° 108° (ESE) 23:47:31 435.175 FM
FUNcube-1 29 Aug 23:55:16 23:58:29 21° 267° (W) 00:01:46 145.950 - 145.970 MHz USB
Saudisat 1A 30 Aug 00:24:57 00:29:14 50° 310° (NW) 00:33:34 436.775 MHz
MaSat-1 30 Aug 00:38:57 00:42:22 21° 257° (WSW) 00:45:27 437.345 MHz
Sapphire 30 Aug 00:54:02 00:56:52 14° 33° (NNE) 00:59:41 437.095 MHz 1200 baud AX-25 AFSK
PCSat 30 Aug 01:22:57 01:27:05 21° 41° (NE) 01:31:11 145.825 MHz
KITSAT 1 30 Aug 01:27:27 01:35:27 62° 308° (NW) 01:43:30 435.175 FM
Oscar 19 30 Aug 01:36:46 01:38:43 12° 88° (E) 01:40:39 437.125 CW, 437.150 USB
Saudisat 1A 30 Aug 02:08:32 02:09:52 11° 331° (NNW) 02:11:13 436.775 MHz
Oscar 16 30 Aug 02:09:35 02:13:55 26° 94° (E) 02:18:13 437.025 USB, Beacon 2401.1428
AO-Echo 30 Aug 02:12:10 02:13:15 11° 88° (E) 02:14:19 ?
Uribyol 2 30 Aug 02:16:44 02:19:12 13° 89° (E) 02:21:39 436.500 FM
AO-27 30 Aug 02:34:22 02:38:01 19° 92° (E) 02:41:38 436.795 MHz FM
Sapphire 30 Aug 02:36:04 02:41:28 60° 55° (NE) 02:46:49 437.095 MHz 1200 baud AX-25 AFSK
Gurwin Techsat 1B 30 Aug 02:57:56 03:00:46 14° 89° (E) 03:03:36 435.225 FM
PCSat 30 Aug 03:05:40 03:11:07 77° 241° (WSW) 03:16:31 145.825 MHz
Oscar 19 30 Aug 03:13:30 03:18:45 87° 285° (WNW) 03:23:56 437.125 CW, 437.150 USB
JAS-1B 30 Aug 03:25:23 03:32:02 48° 97° (E) 03:37:46 435.800 - 435.900 CW/SSB
KITSAT 1 30 Aug 03:26:43 03:32:40 22° 334° (NNW) 03:38:39 435.175 FM
OPAL 30 Aug 03:26:48 03:30:01 17° 57° (ENE) 03:33:16 ?
ITAMSAT 1 30 Aug 03:43:52 03:49:05 79° 104° (ESE) 03:54:16 435.822 SSB
AO-Echo 30 Aug 03:47:56 03:52:39 82° 285° (WNW) 03:57:22 ?
Oscar 16 30 Aug 03:48:31 03:53:25 42° 291° (WNW) 03:58:16 437.025 USB, Beacon 2401.1428
TMSAT-1 30 Aug 03:48:40 03:53:21 31° 95° (E) 03:58:00 436.925 FM
AO-7 30 Aug 03:52:19 03:53:30 10° 84° (E) 03:54:41 29.400 - 29.500 MHz
Uribyol 2 30 Aug 03:54:05 03:59:17 80° 286° (WNW) 04:04:29 436.500 FM
AO-27 30 Aug 04:12:49 04:17:54 57° 289° (WNW) 04:22:58 436.795 MHz FM
Sapphire 30 Aug 04:20:25 04:24:25 21° 253° (WSW) 04:28:25 437.095 MHz 1200 baud AX-25 AFSK
SO-50 30 Aug 04:22:44 04:26:57 43° 118° (ESE) 04:31:17 436.795 FM
Gurwin Techsat 1B 30 Aug 04:36:01 04:41:20 77° 286° (WNW) 04:46:37 435.225 FM
Uosat F 30 Aug 04:38:44 04:41:55 17° 91° (E) 04:45:06 435.120 FM
PCSat 30 Aug 04:52:33 04:53:34 11° 259° (W) 04:54:35 145.825 MHz
Oscar 19 30 Aug 04:54:54 04:57:18 13° 303° (WNW) 04:59:42 437.125 CW, 437.150 USB
OPAL 30 Aug 05:03:16 05:08:19 73° 255° (WSW) 05:13:28 ?
JAS-1B 30 Aug 05:16:26 05:22:21 30° 301° (WNW) 05:27:33 435.800 - 435.900 CW/SSB
ITAMSAT 1 30 Aug 05:24:57 05:27:55 16° 302° (WNW) 05:30:54 435.822 SSB
KITSAT 1 30 Aug 05:27:29 05:31:47 15° 4° (N) 05:36:04 435.175 FM
TMSAT-1 30 Aug 05:28:29 05:33:18 37° 293° (WNW) 05:38:06 436.925 FM
AO-Echo 30 Aug 05:29:47 05:30:39 11° 303° (WNW) 05:31:31 ?
Uribyol 2 30 Aug 05:35:57 05:37:55 12° 304° (NW) 05:39:54 436.500 FM
AO-7 30 Aug 05:39:47 05:48:00 61° 103° (ESE) 05:56:08 29.400 - 29.500 MHz
SO-50 30 Aug 06:03:47 06:07:40 28° 317° (NW) 06:11:39 436.795 FM
Uosat F 30 Aug 06:16:11 06:21:07 61° 288° (WNW) 06:26:03 435.120 FM
Hamsat 30 Aug 06:16:12 06:18:47 15° 90° (E) 06:21:21 145.90 MHz
Gurwin Techsat 1B 30 Aug 06:18:31 06:20:24 12° 305° (NW) 06:22:18 435.225 FM
